Wetterdaten: Freitag, 04.03.2016
Datum Zeit Temp. A. Mod.Schuppen Aussentemp2 Feuchte A. Luftdruck Regen Wind Richtung Richtung Sonnenschein Helligkeit Solar
04.03.2016 00:04 1,8 C -1,8 C 5,4 C 83 % 1003,9 hPa 0,0 l/m 11,1 km/h (2 Bft) S-SO22.5 160 0 min 0 lux 0 W/m
04.03.2016 00:09 1,7 C -1,7 C 5,4 C 83 % 1003,9 hPa 0,0 l/m 4,9 km/h (1 Bft) S-SO 160 0 min 0 lux 0 W/m
04.03.2016 00:14 1,7 C -2,0 C 5,4 C 83 % 1003,9 hPa 0,0 l/m 4,9 km/h (1 Bft) S-SO 160 0 min 0 lux 0 W/m
04.03.2016 00:19 1,5 C -2,2 C 5,4 C 83 % 1003,9 hPa 0,0 l/m 0,7 km/h (0 Bft) SO 130 0 min 0 lux 0 W/m
04.03.2016 00:24 1,3 C -2,4 C 5,4 C 83 % 1003,9 hPa 0,0 l/m 0,7 km/h (0 Bft) SO 130 0 min 0 lux 0 W/m
04.03.2016 00:29 1,2 C -2,4 C 5,4 C 83 % 1003,9 hPa 0,0 l/m 0,7 km/h (0 Bft) SO 130 0 min 0 lux 0 W/m
04.03.2016 00:35 1,2 C -2,4 C 5,4 C 83 % 1003,9 hPa 0,0 l/m 0,7 km/h (0 Bft) SO 130 0 min 0 lux 0 W/m
04.03.2016 00:39 1,2 C -2,6 C 5,4 C 84 % 1003,9 hPa 0,0 l/m 0,7 km/h (0 Bft) SO 130 0 min 0 lux 0 W/m
04.03.2016 00:44 1,2 C -2,5 C 5,4 C 84 % 1003,9 hPa 0,0 l/m 0,7 km/h (0 Bft) SO 130 0 min 0 lux 0 W/m
04.03.2016 00:49 1,2 C -2,4 C 5,4 C 84 % 1003,9 hPa 0,0 l/m 0,7 km/h (0 Bft) SO 130 0 min 0 lux 0 W/m
04.03.2016 00:54 1,2 C -2,5 C 5,4 C 84 % 1003,9 hPa 0,0 l/m 6,4 km/h (2 Bft) SO22.5 125 0 min 0 lux 0 W/m
04.03.2016 00:59 1,1 C -2,5 C 5,4 C 84 % 1003,9 hPa 0,0 l/m 6,4 km/h (2 Bft) SO22.5 125 0 min 0 lux 0 W/m
04.03.2016 01:04 1,1 C -2,5 C 5,3 C 84 % 1003,9 hPa 0,0 l/m 6,4 km/h (2 Bft) SO22.5 125 0 min 0 lux 0 W/m
04.03.2016 01:09 1,1 C -2,5 C 5,3 C 84 % 1003,9 hPa 0,0 l/m 6,4 km/h (2 Bft) SO22.5 125 0 min 0 lux 0 W/m
04.03.2016 01:14 1,0 C -2,6 C 5,3 C 85 % 1003,9 hPa 0,0 l/m 6,4 km/h (2 Bft) SO22.5 125 0 min 0 lux 0 W/m
04.03.2016 01:19 1,1 C -2,3 C 5,3 C 85 % 1002,9 hPa 0,0 l/m 1,3 km/h (1 Bft) SO 135 0 min 0 lux 0 W/m
04.03.2016 01:24 1,1 C -2,4 C 5,3 C 85 % 1002,9 hPa 0,0 l/m 1,3 km/h (1 Bft) SO 135 0 min 0 lux 0 W/m
04.03.2016 01:29 1,1 C -2,1 C 5,3 C 85 % 1002,9 hPa 0,0 l/m 7,0 km/h (2 Bft) SO45 125 0 min 0 lux 0 W/m
04.03.2016 01:34 1,1 C -2,1 C 5,2 C 85 % 1002,9 hPa 0,0 l/m 7,0 km/h (2 Bft) SO45 125 0 min 0 lux 0 W/m
04.03.2016 01:39 1,1 C -2,0 C 5,2 C 85 % 1002,9 hPa 0,0 l/m 7,0 km/h (2 Bft) SO45 125 0 min 0 lux 0 W/m
04.03.2016 01:44 1,1 C -1,9 C 5,2 C 86 % 1002,9 hPa 0,0 l/m 7,0 km/h (2 Bft) SO45 125 0 min 0 lux 0 W/m
04.03.2016 01:49 1,1 C -1,7 C 5,2 C 86 % 1002,9 hPa 0,0 l/m 10,1 km/h (2 Bft) SO45 145 0 min 0 lux 0 W/m
04.03.2016 01:54 1,1 C -1,4 C 5,2 C 86 % 1002,9 hPa 0,0 l/m 10,1 km/h (2 Bft) SO45 145 0 min 0 lux 0 W/m
04.03.2016 01:59 1,1 C -1,4 C 5,2 C 86 % 1002,9 hPa 0,0 l/m 10,1 km/h (2 Bft) SO45 145 0 min 0 lux 0 W/m
04.03.2016 02:04 1,1 C -1,3 C 5,1 C 86 % 1002,9 hPa 0,0 l/m 10,1 km/h (2 Bft) SO45 145 0 min 0 lux 0 W/m
04.03.2016 02:09 1,1 C -1,2 C 5,1 C 86 % 1002,9 hPa 0,0 l/m 10,1 km/h (2 Bft) SO45 145 0 min 0 lux 0 W/m
04.03.2016 02:14 1,1 C -1,2 C 5,2 C 86 % 1002,9 hPa 0,0 l/m 10,1 km/h (2 Bft) SO45 145 0 min 0 lux 0 W/m
04.03.2016 02:20 1,1 C -1,2 C 5,2 C 86 % 1002,9 hPa 0,0 l/m 10,1 km/h (2 Bft) SO45 145 0 min 0 lux 0 W/m
04.03.2016 02:24 1,1 C -1,0 C 5,0 C 86 % 1002,9 hPa 0,0 l/m 10,1 km/h (2 Bft) SO45 145 0 min 0 lux 0 W/m
04.03.2016 02:29 1,1 C -1,1 C 5,0 C 86 % 1002,9 hPa 0,0 l/m 10,0 km/h (2 Bft) S-SO22.5 155 0 min 0 lux 0 W/m
04.03.2016 02:34 1,2 C -1,1 C 5,0 C 86 % 1002,9 hPa 0,0 l/m 10,0 km/h (2 Bft) S-SO22.5 155 0 min 0 lux 0 W/m
04.03.2016 02:39 1,2 C -1,1 C 5,0 C 86 % 1002,9 hPa 0,0 l/m 10,0 km/h (2 Bft) S-SO22.5 155 0 min 0 lux 0 W/m
04.03.2016 02:44 1,2 C -1,1 C 5,1 C 86 % 1002,9 hPa 0,0 l/m 10,0 km/h (2 Bft) S-SO22.5 155 0 min 0 lux 0 W/m
04.03.2016 02:49 1,2 C -1,0 C 5,1 C 86 % 1002,9 hPa 0,0 l/m 10,0 km/h (2 Bft) S-SO22.5 155 0 min 0 lux 0 W/m
04.03.2016 02:54 1,2 C -1,1 C 5,1 C 86 % 1002,9 hPa 0,0 l/m 10,0 km/h (2 Bft) S-SO22.5 155 0 min 0 lux 0 W/m
04.03.2016 02:59 1,2 C -1,2 C 5,1 C 86 % 1001,9 hPa 0,0 l/m 10,0 km/h (2 Bft) S-SO22.5 155 0 min 0 lux 0 W/m
04.03.2016 03:04 1,2 C -1,1 C 5,1 C 86 % 1001,9 hPa 0,0 l/m 10,0 km/h (2 Bft) S-SO22.5 155 0 min 0 lux 0 W/m
04.03.2016 03:10 1,2 C -1,1 C 4,9 C 86 % 1001,9 hPa 0,0 l/m 10,0 km/h (2 Bft) S-SO22.5 155 0 min 0 lux 0 W/m
04.03.2016 03:14 1,2 C -1,2 C 5,0 C 86 % 1001,9 hPa 0,0 l/m 10,0 km/h (2 Bft) S-SO22.5 155 0 min 0 lux 0 W/m
04.03.2016 03:19 1,2 C -1,2 C 5,0 C 86 % 1001,9 hPa 0,0 l/m 10,0 km/h (2 Bft) S-SO22.5 155 0 min 0 lux 0 W/m
04.03.2016 03:24 1,2 C -1,2 C 4,9 C 86 % 1001,9 hPa 0,0 l/m 10,0 km/h (2 Bft) S-SO22.5 155 0 min 0 lux 0 W/m
04.03.2016 03:29 1,2 C -1,2 C 4,9 C 86 % 1001,9 hPa 0,0 l/m 10,0 km/h (2 Bft) S-SO22.5 155 0 min 0 lux 0 W/m
04.03.2016 03:34 1,2 C -1,2 C 5,0 C 86 % 1001,9 hPa 0,0 l/m 10,0 km/h (2 Bft) S-SO22.5 155 0 min 0 lux 0 W/m
04.03.2016 03:39 1,2 C -1,1 C 4,9 C 86 % 1001,9 hPa 0,0 l/m 10,0 km/h (2 Bft) S-SO22.5 155 0 min 0 lux 0 W/m
04.03.2016 03:44 1,2 C -1,1 C 4,8 C 86 % 1001,9 hPa 0,0 l/m 10,0 km/h (2 Bft) S-SO22.5 155 0 min 0 lux 0 W/m
04.03.2016 03:49 1,2 C -1,0 C 4,8 C 86 % 1001,9 hPa 0,0 l/m 10,0 km/h (2 Bft) S-SO22.5 155 0 min 0 lux 0 W/m
04.03.2016 03:54 1,2 C -0,9 C 4,7 C 86 % 1001,9 hPa 0,0 l/m 10,0 km/h (2 Bft) S-SO22.5 155 0 min 0 lux 0 W/m
04.03.2016 03:59 1,2 C -0,7 C 4,7 C 86 % 1001,9 hPa 0,0 l/m 10,0 km/h (2 Bft) S-SO22.5 155 0 min 0 lux 0 W/m
04.03.2016 04:04 1,2 C -0,8 C 4,7 C 86 % 1001,9 hPa 0,0 l/m 10,0 km/h (2 Bft) S-SO22.5 155 0 min 0 lux 0 W/m
04.03.2016 04:09 1,1 C -0,9 C 4,8 C 86 % 1000,9 hPa 0,0 l/m 10,0 km/h (2 Bft) S-SO22.5 155 0 min 0 lux 0 W/m
04.03.2016 04:14 1,1 C -0,9 C 4,9 C 86 % 1000,9 hPa 0,0 l/m 10,0 km/h (2 Bft) S-SO22.5 155 0 min 0 lux 0 W/m
04.03.2016 04:19 1,1 C -0,9 C 4,9 C 85 % 1000,9 hPa 0,0 l/m 10,0 km/h (2 Bft) S-SO22.5 155 0 min 0 lux 0 W/m
04.03.2016 04:24 1,2 C -0,8 C 4,8 C 85 % 1000,9 hPa 0,0 l/m 10,0 km/h (2 Bft) S-SO22.5 155 0 min 0 lux 0 W/m
04.03.2016 04:29 1,2 C -0,8 C 4,6 C 85 % 1000,9 hPa 0,0 l/m 10,0 km/h (2 Bft) S-SO22.5 155 0 min 0 lux 0 W/m
04.03.2016 04:34 1,2 C -0,7 C 4,6 C 85 % 1000,9 hPa 0,0 l/m 10,0 km/h (2 Bft) S-SO22.5 155 0 min 0 lux 0 W/m
04.03.2016 04:39 1,2 C -0,7 C 4,6 C 85 % 1000,9 hPa 0,0 l/m 10,0 km/h (2 Bft) S-SO22.5 155 0 min 0 lux 0 W/m
04.03.2016 04:44 1,2 C -0,6 C 4,6 C 85 % 1000,9 hPa 0,0 l/m 10,0 km/h (2 Bft) S-SO22.5 155 0 min 0 lux 0 W/m
04.03.2016 04:49 1,2 C -0,6 C 4,6 C 85 % 1000,9 hPa 0,0 l/m 10,0 km/h (2 Bft) S-SO22.5 155 0 min 0 lux 0 W/m
04.03.2016 04:54 1,2 C -0,4 C 4,5 C 85 % 1000,9 hPa 0,0 l/m 10,0 km/h (2 Bft) S-SO22.5 155 0 min 0 lux 0 W/m
04.03.2016 04:59 1,4 C -0,3 C 4,5 C 85 % 999,8 hPa 0,0 l/m 10,0 km/h (2 Bft) S-SO22.5 155 0 min 0 lux 0 W/m
04.03.2016 05:04 1,4 C -0,3 C 4,6 C 85 % 999,8 hPa 0,0 l/m 10,0 km/h (2 Bft) S-SO22.5 155 0 min 0 lux 0 W/m
04.03.2016 05:09 1,4 C -0,3 C 4,5 C 84 % 999,8 hPa 0,0 l/m 10,0 km/h (2 Bft) S-SO22.5 155 0 min 0 lux 0 W/m
04.03.2016 05:14 1,4 C -0,3 C 4,7 C 84 % 999,8 hPa 0,0 l/m 10,0 km/h (2 Bft) S-SO22.5 155 0 min 0 lux 0 W/m
04.03.2016 05:19 1,4 C -0,3 C 4,7 C 84 % 999,8 hPa 0,0 l/m 10,0 km/h (2 Bft) S-SO22.5 155 0 min 0 lux 0 W/m
04.03.2016 05:24 1,4 C -0,2 C 4,7 C 84 % 999,8 hPa 0,0 l/m 10,0 km/h (2 Bft) S-SO22.5 155 0 min 0 lux 0 W/m
04.03.2016 05:29 1,5 C -0,1 C 4,7 C 84 % 999,8 hPa 0,0 l/m 10,0 km/h (2 Bft) S-SO22.5 155 0 min 0 lux 0 W/m
04.03.2016 05:34 1,5 C 0,0 C 4,7 C 84 % 999,8 hPa 0,0 l/m 10,0 km/h (2 Bft) S-SO22.5 155 0 min 0 lux 0 W/m
04.03.2016 05:39 1,5 C 0,0 C 4,6 C 84 % 999,8 hPa 0,0 l/m 10,0 km/h (2 Bft) S-SO22.5 155 0 min 0 lux 0 W/m
04.03.2016 05:44 1,5 C 0,0 C 4,6 C 84 % 999,8 hPa 0,0 l/m 13,1 km/h (3 Bft) S-SO45 165 0 min 0 lux 0 W/m
04.03.2016 05:49 1,5 C -0,1 C 4,6 C 84 % 998,8 hPa 0,0 l/m 13,1 km/h (3 Bft) S-SO45 165 0 min 0 lux 0 W/m
04.03.2016 05:54 1,6 C -0,2 C 4,6 C 83 % 998,8 hPa 0,0 l/m 13,1 km/h (3 Bft) S-SO45 165 0 min 0 lux 0 W/m
04.03.2016 05:59 1,6 C -0,3 C 4,6 C 83 % 998,8 hPa 0,0 l/m 13,1 km/h (3 Bft) S-SO45 165 0 min 0 lux 0 W/m
04.03.2016 06:04 1,7 C -0,3 C 4,5 C 83 % 998,8 hPa 0,0 l/m 22,7 km/h (4 Bft) S-SO67.5 165 0 min 0 lux 0 W/m
04.03.2016 06:09 1,8 C -0,3 C 4,5 C 82 % 998,8 hPa 0,0 l/m 22,7 km/h (4 Bft) S-SO67.5 165 0 min 0 lux 0 W/m
04.03.2016 06:14 1,9 C -0,4 C 4,5 C 82 % 998,8 hPa 0,0 l/m 22,7 km/h (4 Bft) S-SO67.5 165 0 min 0 lux 0 W/m
04.03.2016 06:19 1,9 C -0,4 C 4,5 C 81 % 998,8 hPa 0,0 l/m 22,7 km/h (4 Bft) S-SO67.5 165 0 min 0 lux 0 W/m
04.03.2016 06:24 2,0 C -0,3 C 4,5 C 81 % 998,8 hPa 0,0 l/m 22,7 km/h (4 Bft) S-SO67.5 165 0 min 0 lux 0 W/m
04.03.2016 06:29 2,0 C -0,2 C 4,4 C 81 % 998,8 hPa 0,0 l/m 22,7 km/h (4 Bft) S-SO67.5 165 0 min 0 lux 0 W/m
04.03.2016 06:34 2,1 C 0,0 C 4,4 C 81 % 998,8 hPa 0,0 l/m 19,7 km/h (3 Bft) S-SO67.5 155 0 min 0 lux 0 W/m
04.03.2016 06:39 2,1 C 0,1 C 4,4 C 81 % 998,8 hPa 0,0 l/m 19,7 km/h (3 Bft) S-SO67.5 155 0 min 0 lux 0 W/m
04.03.2016 06:44 2,1 C 0,2 C 4,5 C 81 % 997,8 hPa 0,0 l/m 19,7 km/h (3 Bft) S-SO67.5 155 0 min 0 lux 0 W/m
04.03.2016 06:49 2,1 C 0,2 C 4,4 C 81 % 997,8 hPa 0,0 l/m 19,7 km/h (3 Bft) S-SO67.5 155 0 min 0 lux 0 W/m
04.03.2016 06:54 2,1 C 0,2 C 4,4 C 81 % 997,8 hPa 0,0 l/m 19,7 km/h (3 Bft) S-SO67.5 155 0 min 0 lux 0 W/m
04.03.2016 06:59 2,1 C 0,2 C 4,6 C 81 % 997,8 hPa 0,0 l/m 19,7 km/h (3 Bft) S-SO67.5 155 0 min 38 lux 0 W/m
04.03.2016 07:04 2,1 C 0,2 C 4,5 C 81 % 997,8 hPa 0,0 l/m 19,7 km/h (3 Bft) S-SO67.5 155 0 min 81 lux 0 W/m
04.03.2016 07:09 2,3 C 0,3 C 4,6 C 80 % 997,8 hPa 0,0 l/m 19,7 km/h (3 Bft) S-SO67.5 155 0 min 189 lux 0 W/m
04.03.2016 07:14 2,3 C 0,3 C 4,5 C 80 % 997,8 hPa 0,0 l/m 19,7 km/h (3 Bft) S-SO67.5 155 0 min 204 lux 0 W/m
04.03.2016 07:19 2,3 C 0,3 C 4,6 C 80 % 997,8 hPa 0,0 l/m 18,1 km/h (3 Bft) S-SO45 155 0 min 353 lux 2 W/m
04.03.2016 07:24 2,5 C 0,3 C 4,6 C 79 % 997,8 hPa 0,0 l/m 27,6 km/h (5 Bft) S67.5 170 0 min 404 lux 3 W/m
04.03.2016 07:29 2,5 C 0,3 C 4,6 C 78 % 997,8 hPa 0,0 l/m 27,6 km/h (5 Bft) S67.5 170 0 min 548 lux 4 W/m
04.03.2016 07:34 2,5 C 0,3 C 4,6 C 78 % 996,8 hPa 0,0 l/m 27,6 km/h (5 Bft) S67.5 170 0 min 618 lux 4 W/m
04.03.2016 07:39 2,6 C 0,4 C 4,5 C 77 % 996,8 hPa 0,0 l/m 28,3 km/h (5 Bft) SO67.5 145 0 min 1,03 klux 7 W/m
04.03.2016 07:44 2,7 C 0,8 C 4,4 C 77 % 996,8 hPa 0,0 l/m 22,0 km/h (4 Bft) S-SO45 160 0 min 1,39 klux 10 W/m
04.03.2016 07:49 2,7 C 1,0 C 4,5 C 77 % 996,8 hPa 0,0 l/m 20,4 km/h (4 Bft) SO67.5 135 0 min 1,62 klux 11 W/m
04.03.2016 07:54 2,7 C 1,2 C 4,4 C 76 % 996,8 hPa 0,0 l/m 20,4 km/h (4 Bft) SO67.5 135 0 min 2,10 klux 14 W/m
04.03.2016 07:59 2,8 C 1,2 C 4,4 C 75 % 996,8 hPa 0,0 l/m 25,9 km/h (4 Bft) S-SO67.5 160 0 min 2,33 klux 16 W/m
04.03.2016 08:04 3,0 C 1,3 C 4,3 C 75 % 996,8 hPa 0,0 l/m 31,7 km/h (5 Bft) S-SO45 160 0 min 2,90 klux 20 W/m
04.03.2016 08:09 3,0 C 1,5 C 4,3 C 75 % 996,8 hPa 0,0 l/m 31,7 km/h (5 Bft) S-SO45 160 0 min 3,57 klux 24 W/m
04.03.2016 08:14 3,1 C 1,6 C 4,3 C 74 % 996,8 hPa 0,0 l/m 31,7 km/h (5 Bft) S-SO45 160 0 min 4,02 klux 27 W/m
04.03.2016 08:19 3,1 C 1,8 C 4,3 C 74 % 996,8 hPa 0,0 l/m 31,7 km/h (5 Bft) S-SO45 160 0 min 3,15 klux 22 W/m
04.03.2016 08:24 3,1 C 1,8 C 4,4 C 74 % 996,8 hPa 0,0 l/m 31,7 km/h (5 Bft) S-SO45 160 0 min 2,34 klux 16 W/m
04.03.2016 08:29 3,3 C 1,8 C 4,2 C 73 % 996,8 hPa 0,0 l/m 31,7 km/h (5 Bft) S-SO45 160 0 min 1,92 klux 13 W/m
04.03.2016 08:34 3,0 C 1,6 C 4,1 C 75 % 995,8 hPa 0,0 l/m 31,7 km/h (5 Bft) S-SO45 160 0 min 2,47 klux 17 W/m
04.03.2016 08:39 3,0 C 1,7 C 4,2 C 75 % 995,8 hPa 0,0 l/m 31,7 km/h (5 Bft) S-SO45 160 0 min 1,68 klux 11 W/m
04.03.2016 08:44 2,8 C 1,7 C 4,1 C 77 % 995,8 hPa 0,0 l/m 36,0 km/h (5 Bft) S-SO45 155 0 min 1,93 klux 13 W/m
04.03.2016 08:49 2,6 C 1,6 C 4,0 C 78 % 995,8 hPa 0,0 l/m 20,4 km/h (4 Bft) S22.5 170 0 min 2,06 klux 14 W/m
04.03.2016 08:54 2,2 C 1,4 C 4,2 C 81 % 995,8 hPa 0,0 l/m 26,5 km/h (4 Bft) S67.5 170 0 min 1,91 klux 13 W/m
04.03.2016 08:59 2,2 C 0,7 C 4,3 C 81 % 995,8 hPa 0,4 l/m 19,8 km/h (3 Bft) S-SO67.5 155 0 min 1,87 klux 13 W/m
04.03.2016 09:04 1,9 C 0,5 C 4,4 C 81 % 995,8 hPa 0,0 l/m 19,8 km/h (3 Bft) S-SO67.5 155 0 min 3,36 klux 23 W/m
04.03.2016 09:09 1,7 C 0,7 C 4,5 C 83 % 995,8 hPa 0,0 l/m 24,1 km/h (4 Bft) S-SO67.5 150 0 min 3,57 klux 24 W/m
04.03.2016 09:14 1,7 C 1,3 C 4,5 C 84 % 994,8 hPa 0,0 l/m 24,1 km/h (4 Bft) S-SO67.5 150 0 min 3,77 klux 26 W/m
04.03.2016 09:19 1,7 C 1,8 C 4,5 C 84 % 994,8 hPa 0,0 l/m 24,1 km/h (4 Bft) S-SO67.5 150 0 min 4,48 klux 31 W/m
04.03.2016 09:24 1,9 C 2,1 C 4,5 C 85 % 994,8 hPa 0,0 l/m 24,1 km/h (4 Bft) S-SO67.5 150 0 min 4,15 klux 28 W/m
04.03.2016 09:29 1,9 C 2,3 C 4,6 C 85 % 994,8 hPa 0,0 l/m 24,1 km/h (4 Bft) S-SO67.5 150 0 min 5,13 klux 35 W/m
04.03.2016 09:34 1,9 C 2,5 C 4,5 C 85 % 994,8 hPa 0,0 l/m 24,1 km/h (4 Bft) S-SO67.5 150 0 min 5,61 klux 38 W/m
04.03.2016 09:39 1,9 C 3,0 C 4,5 C 85 % 994,8 hPa 0,0 l/m 24,1 km/h (4 Bft) S-SO67.5 150 0 min 7,17 klux 49 W/m
04.03.2016 09:45 1,9 C 3,2 C 4,6 C 85 % 994,8 hPa 0,0 l/m 24,1 km/h (4 Bft) S-SO67.5 150 0 min 7,26 klux 50 W/m
04.03.2016 09:49 1,9 C 3,1 C 4,6 C 85 % 994,8 hPa 0,0 l/m 24,1 km/h (4 Bft) S-SO67.5 150 0 min 5,54 klux 38 W/m
04.03.2016 09:54 2,5 C 3,2 C 4,6 C 83 % 994,8 hPa 0,0 l/m 24,1 km/h (4 Bft) S-SO67.5 150 0 min 7,16 klux 49 W/m
04.03.2016 09:59 2,5 C 3,4 C 4,6 C 83 % 994,8 hPa 0,0 l/m 24,1 km/h (4 Bft) S-SO67.5 150 0 min 6,68 klux 46 W/m
04.03.2016 10:04 2,5 C 3,2 C 4,7 C 83 % 993,8 hPa 0,0 l/m 24,1 km/h (4 Bft) S-SO67.5 150 0 min 5,09 klux 35 W/m
04.03.2016 10:09 2,5 C 3,0 C 4,7 C 83 % 993,8 hPa 0,0 l/m 24,1 km/h (4 Bft) S-SO67.5 150 0 min 5,07 klux 35 W/m
04.03.2016 10:14 2,7 C 2,4 C 4,6 C 81 % 993,8 hPa 0,4 l/m 28,1 km/h (5 Bft) S-SO45 155 0 min 3,69 klux 25 W/m
04.03.2016 10:19 2,7 C 2,0 C 4,6 C 81 % 993,8 hPa 0,0 l/m 43,3 km/h (6 Bft) S-SO45 160 0 min 4,46 klux 31 W/m
04.03.2016 10:24 2,3 C 1,7 C 4,5 C 82 % 993,8 hPa 0,4 l/m 43,3 km/h (6 Bft) S-SO45 160 0 min 4,67 klux 32 W/m
04.03.2016 10:29 2,2 C 1,9 C 4,5 C 83 % 993,8 hPa 0,0 l/m 34,2 km/h (5 Bft) SO67.5 145 0 min 5,23 klux 36 W/m
04.03.2016 10:34 2,2 C 1,9 C 4,6 C 83 % 993,8 hPa 0,0 l/m 28,8 km/h (5 Bft) S-SO67.5 150 0 min 4,74 klux 32 W/m
04.03.2016 10:39 2,1 C 2,1 C 4,5 C 84 % 993,8 hPa 0,0 l/m 28,8 km/h (5 Bft) S-SO67.5 150 0 min 5,02 klux 34 W/m
04.03.2016 10:44 2,1 C 2,3 C 4,6 C 84 % 993,8 hPa 0,4 l/m 22,7 km/h (4 Bft) S-SO67.5 165 0 min 6,36 klux 44 W/m
04.03.2016 10:49 2,1 C 2,5 C 4,5 C 85 % 993,8 hPa 0,0 l/m 22,7 km/h (4 Bft) S-SO67.5 165 0 min 6,33 klux 43 W/m
04.03.2016 10:54 2,1 C 2,5 C 4,5 C 85 % 993,8 hPa 0,0 l/m 31,8 km/h (5 Bft) SO67.5 145 0 min 6,67 klux 46 W/m
04.03.2016 10:59 2,1 C 2,6 C 4,6 C 85 % 993,8 hPa 0,0 l/m 36,5 km/h (5 Bft) S67.5 170 0 min 6,89 klux 47 W/m
04.03.2016 11:04 2,1 C 2,6 C 4,4 C 85 % 992,8 hPa 0,0 l/m 36,5 km/h (5 Bft) S67.5 170 0 min 6,76 klux 46 W/m
04.03.2016 11:09 2,1 C 2,5 C 4,4 C 85 % 992,8 hPa 0,4 l/m 33,4 km/h (5 Bft) S-SO45 150 0 min 6,80 klux 47 W/m
04.03.2016 11:14 2,0 C 2,2 C 4,5 C 85 % 992,8 hPa 0,0 l/m 29,6 km/h (5 Bft) S-SO67.5 150 0 min 7,87 klux 54 W/m
04.03.2016 11:20 2,0 C 2,3 C 4,6 C 85 % 992,8 hPa 0,0 l/m 26,3 km/h (4 Bft) SO22.5 145 0 min 8,23 klux 56 W/m
04.03.2016 11:24 2,0 C 2,5 C 4,5 C 85 % 992,8 hPa 0,4 l/m 26,3 km/h (4 Bft) SO22.5 145 0 min 8,32 klux 57 W/m
04.03.2016 11:29 2,0 C 2,9 C 4,5 C 85 % 992,8 hPa 0,0 l/m 26,3 km/h (4 Bft) SO22.5 145 0 min 7,93 klux 54 W/m
04.03.2016 11:34 2,0 C 2,8 C 4,5 C 85 % 992,8 hPa 0,0 l/m 26,3 km/h (4 Bft) SO22.5 145 0 min 6,85 klux 47 W/m
04.03.2016 11:39 2,0 C 2,5 C 4,4 C 85 % 992,8 hPa 0,0 l/m 25,5 km/h (4 Bft) SO67.5 145 0 min 6,23 klux 43 W/m
04.03.2016 11:45 2,0 C 2,6 C 4,6 C 85 % 992,8 hPa 0,4 l/m 25,5 km/h (4 Bft) SO67.5 145 0 min 7,28 klux 50 W/m
04.03.2016 11:49 2,2 C 3,0 C 4,5 C 86 % 992,8 hPa 0,0 l/m 33,9 km/h (5 Bft) S-SO67.5 160 0 min 7,41 klux 51 W/m
04.03.2016 11:54 2,2 C 3,2 C 4,5 C 86 % 992,8 hPa 0,0 l/m 26,6 km/h (4 Bft) S-SO67.5 155 0 min 6,76 klux 46 W/m
04.03.2016 11:59 2,3 C 3,3 C 4,5 C 85 % 992,8 hPa 0,0 l/m 26,6 km/h (4 Bft) S-SO67.5 155 0 min 6,30 klux 43 W/m
04.03.2016 12:04 2,3 C 3,1 C 4,6 C 85 % 992,8 hPa 0,0 l/m 26,6 km/h (4 Bft) S-SO67.5 155 0 min 5,31 klux 36 W/m
04.03.2016 12:09 2,3 C 3,0 C 4,6 C 85 % 992,8 hPa 0,4 l/m 26,6 km/h (4 Bft) S-SO67.5 155 0 min 5,73 klux 39 W/m
04.03.2016 12:14 2,3 C 2,9 C 4,5 C 85 % 992,8 hPa 0,0 l/m 26,6 km/h (4 Bft) S-SO67.5 155 0 min 5,79 klux 40 W/m
04.03.2016 12:19 2,3 C 2,8 C 4,4 C 85 % 992,8 hPa 0,4 l/m 26,6 km/h (4 Bft) S-SO67.5 155 0 min 4,81 klux 33 W/m
04.03.2016 12:24 2,3 C 2,6 C 4,4 C 85 % 992,8 hPa 0,0 l/m 37,5 km/h (5 Bft) S-SO45 150 0 min 3,98 klux 27 W/m
04.03.2016 12:29 2,1 C 2,3 C 4,4 C 85 % 992,8 hPa 0,0 l/m 37,5 km/h (5 Bft) S-SO45 150 0 min 3,97 klux 27 W/m
04.03.2016 12:34 1,9 C 2,0 C 4,4 C 85 % 992,8 hPa 0,4 l/m 37,5 km/h (5 Bft) S-SO45 150 0 min 3,76 klux 26 W/m
04.03.2016 12:39 1,8 C 1,5 C 4,3 C 86 % 992,8 hPa 0,4 l/m 37,5 km/h (5 Bft) S-SO45 150 0 min 3,80 klux 26 W/m
04.03.2016 12:44 1,8 C 1,1 C 4,3 C 86 % 992,8 hPa 0,0 l/m 32,2 km/h (5 Bft) S-SO45 155 0 min 3,65 klux 25 W/m
04.03.2016 12:49 1,8 C 0,8 C 4,2 C 86 % 992,8 hPa 0,0 l/m 32,2 km/h (5 Bft) S-SO45 155 0 min 3,94 klux 27 W/m
04.03.2016 12:54 1,8 C 0,8 C 4,3 C 86 % 991,8 hPa 0,4 l/m 32,2 km/h (5 Bft) S-SO45 155 0 min 4,84 klux 33 W/m
04.03.2016 12:59 1,4 C 1,1 C 4,3 C 86 % 991,8 hPa 0,4 l/m 32,2 km/h (5 Bft) S-SO45 155 0 min 5,90 klux 40 W/m
04.03.2016 13:04 1,5 C 1,4 C 4,3 C 87 % 991,8 hPa 0,0 l/m 24,3 km/h (4 Bft) S-SO45 165 0 min 5,10 klux 35 W/m
04.03.2016 13:09 1,5 C 1,8 C 4,3 C 87 % 991,8 hPa 0,0 l/m 24,3 km/h (4 Bft) S-SO45 165 0 min 6,07 klux 42 W/m
04.03.2016 13:14 1,5 C 1,6 C 4,4 C 87 % 991,8 hPa 0,0 l/m 24,3 km/h (4 Bft) S-SO45 165 0 min 5,41 klux 37 W/m
04.03.2016 13:19 1,5 C 1,2 C 4,3 C 87 % 991,8 hPa 0,0 l/m 24,3 km/h (4 Bft) S-SO45 165 0 min 4,00 klux 27 W/m
04.03.2016 13:24 1,4 C 1,1 C 4,3 C 88 % 991,8 hPa 0,0 l/m 24,3 km/h (4 Bft) S-SO45 165 0 min 4,09 klux 28 W/m
04.03.2016 13:29 1,4 C 1,6 C 4,4 C 88 % 991,8 hPa 0,0 l/m 24,3 km/h (4 Bft) S-SO45 165 0 min 4,34 klux 30 W/m
04.03.2016 13:34 1,4 C 1,7 C 4,4 C 88 % 991,8 hPa 0,0 l/m 24,3 km/h (4 Bft) S-SO45 165 0 min 3,71 klux 25 W/m
04.03.2016 13:39 1,5 C 1,6 C 4,4 C 88 % 991,8 hPa 0,0 l/m 24,3 km/h (4 Bft) S-SO45 165 0 min 3,09 klux 21 W/m
04.03.2016 13:44 1,5 C 1,1 C 4,1 C 88 % 991,8 hPa 1,4 l/m 24,3 km/h (4 Bft) S-SO45 165 0 min 2,64 klux 18 W/m
04.03.2016 13:49 1,2 C 1,0 C 3,7 C 88 % 991,8 hPa 0,0 l/m 26,0 km/h (4 Bft) S-SO45 160 0 min 2,37 klux 16 W/m
04.03.2016 13:54 1,2 C 0,9 C 3,7 C 88 % 991,8 hPa 0,0 l/m 26,0 km/h (4 Bft) S-SO45 160 0 min 2,67 klux 18 W/m
04.03.2016 13:59 0,7 C 1,0 C 3,7 C 88 % 991,8 hPa 0,0 l/m 26,6 km/h (4 Bft) S-SO45 155 0 min 2,95 klux 20 W/m
04.03.2016 14:04 0,7 C 1,2 C 3,7 C 88 % 991,8 hPa 0,0 l/m 26,6 km/h (4 Bft) S-SO45 155 0 min 3,87 klux 26 W/m
04.03.2016 14:09 0,7 C 1,1 C 3,7 C 88 % 991,8 hPa 0,0 l/m 18,6 km/h (3 Bft) S-SO45 165 0 min 3,98 klux 27 W/m
04.03.2016 14:14 0,7 C 1,1 C 3,9 C 88 % 991,8 hPa 0,0 l/m 17,5 km/h (3 Bft) S-SO22.5 165 0 min 4,07 klux 28 W/m
04.03.2016 14:19 0,7 C 1,1 C 3,8 C 88 % 991,8 hPa 0,0 l/m 21,1 km/h (4 Bft) S-SO67.5 155 0 min 3,44 klux 24 W/m
04.03.2016 14:24 0,7 C 1,0 C 3,7 C 88 % 991,8 hPa 0,0 l/m 16,7 km/h (3 Bft) S-SO22.5 165 0 min 4,27 klux 29 W/m
04.03.2016 14:29 0,7 C 1,0 C 3,9 C 88 % 990,8 hPa 0,4 l/m 18,3 km/h (3 Bft) S-SO22.5 155 0 min 4,10 klux 28 W/m
04.03.2016 14:34 0,7 C 1,1 C 3,9 C 88 % 990,8 hPa 0,0 l/m 17,8 km/h (3 Bft) S-SO22.5 165 0 min 4,44 klux 30 W/m
04.03.2016 14:39 0,7 C 1,2 C 3,9 C 88 % 990,8 hPa 0,4 l/m 24,9 km/h (4 Bft) S-SO45 155 0 min 5,25 klux 36 W/m
04.03.2016 14:44 0,7 C 1,4 C 3,9 C 88 % 990,8 hPa 0,0 l/m 20,5 km/h (4 Bft) S-SO45 155 0 min 4,25 klux 29 W/m
04.03.2016 14:49 0,9 C 1,3 C 3,9 C 89 % 990,8 hPa 0,0 l/m 23,1 km/h (4 Bft) S-SO45 160 0 min 2,68 klux 18 W/m
04.03.2016 14:54 0,9 C 1,4 C 3,8 C 89 % 990,8 hPa 0,4 l/m 23,1 km/h (4 Bft) S-SO45 160 0 min 3,30 klux 23 W/m
04.03.2016 14:59 0,9 C 1,6 C 3,8 C 89 % 990,8 hPa 0,0 l/m 25,8 km/h (4 Bft) S-SO22.5 155 0 min 4,68 klux 32 W/m
04.03.2016 15:04 1,1 C 1,6 C 3,7 C 89 % 990,8 hPa 0,4 l/m 25,8 km/h (4 Bft) S-SO22.5 155 0 min 5,17 klux 35 W/m
04.03.2016 15:09 1,1 C 1,7 C 3,5 C 89 % 990,8 hPa 0,0 l/m 25,8 km/h (4 Bft) S-SO22.5 155 0 min 5,64 klux 39 W/m
04.03.2016 15:14 1,1 C 2,1 C 3,7 C 89 % 990,8 hPa 0,4 l/m 25,8 km/h (4 Bft) S-SO22.5 155 0 min 6,42 klux 44 W/m
04.03.2016 15:19 1,1 C 2,1 C 4,0 C 89 % 990,8 hPa 0,0 l/m 25,8 km/h (4 Bft) S-SO22.5 155 0 min 7,52 klux 51 W/m
04.03.2016 15:25 1,2 C 2,1 C 4,0 C 89 % 990,8 hPa 0,4 l/m 26,5 km/h (4 Bft) S-SO45 165 0 min 8,37 klux 57 W/m
04.03.2016 15:29 1,2 C 2,1 C 4,1 C 89 % 990,8 hPa 0,0 l/m 25,2 km/h (4 Bft) S-SO45 155 0 min 9,2 klux 63 W/m
04.03.2016 15:34 1,5 C 2,2 C 4,0 C 89 % 990,8 hPa 0,0 l/m 25,7 km/h (4 Bft) S-SO45 160 0 min 12,5 klux 86 W/m
04.03.2016 15:39 1,6 C 2,3 C 4,0 C 89 % 990,8 hPa 0,4 l/m 29,9 km/h (5 Bft) S-SO45 150 0 min 13,8 klux 94 W/m
04.03.2016 15:44 1,8 C 2,4 C 4,2 C 89 % 990,8 hPa 0,0 l/m 26,2 km/h (4 Bft) S-SO45 150 0 min 13,6 klux 93 W/m
04.03.2016 15:49 1,8 C 2,6 C 3,9 C 89 % 990,8 hPa 0,0 l/m 32,1 km/h (5 Bft) S-SO67.5 155 0 min 13,9 klux 95 W/m
04.03.2016 15:54 1,8 C 2,6 C 4,0 C 89 % 990,8 hPa 0,4 l/m 29,6 km/h (5 Bft) S-SO45 155 0 min 14,0 klux 96 W/m
04.03.2016 15:59 1,8 C 3,6 C 4,1 C 89 % 990,8 hPa 0,0 l/m 28,5 km/h (5 Bft) S-SO45 160 0 min 7,30 klux 50 W/m
04.03.2016 16:04 1,8 C 4,1 C 4,1 C 89 % 990,8 hPa 0,0 l/m 33,7 km/h (5 Bft) S-SO45 155 0 min 8,73 klux 60 W/m
04.03.2016 16:09 2,1 C 4,1 C 4,1 C 89 % 990,8 hPa 0,0 l/m 28,4 km/h (5 Bft) S-SO45 155 0 min 5,94 klux 41 W/m
04.03.2016 16:14 2,1 C 4,1 C 4,1 C 89 % 990,8 hPa 0,0 l/m 28,4 km/h (5 Bft) S-SO45 155 0 min 6,69 klux 46 W/m
04.03.2016 16:19 2,1 C 4,1 C 4,1 C 89 % 990,8 hPa 0,0 l/m 28,4 km/h (5 Bft) S-SO45 155 0 min 4,48 klux 31 W/m
04.03.2016 16:24 2,1 C 4,7 C 4,1 C 89 % 990,8 hPa 0,0 l/m 28,4 km/h (5 Bft) S-SO45 155 0 min 3,71 klux 25 W/m
04.03.2016 16:29 2,1 C 3,8 C 4,2 C 89 % 990,8 hPa 0,0 l/m 28,4 km/h (5 Bft) S-SO45 155 0 min 3,42 klux 23 W/m
04.03.2016 16:34 2,1 C 3,7 C 4,1 C 89 % 990,8 hPa 0,0 l/m 25,8 km/h (4 Bft) S-SO45 155 0 min 3,24 klux 22 W/m
04.03.2016 16:39 2,1 C 3,7 C 4,2 C 89 % 990,8 hPa 0,0 l/m 21,5 km/h (4 Bft) S-SO67.5 160 0 min 3,22 klux 22 W/m
04.03.2016 16:44 2,1 C 3,7 C 4,2 C 89 % 990,8 hPa 0,0 l/m 24,5 km/h (4 Bft) S-SO45 155 0 min 2,66 klux 18 W/m
04.03.2016 16:49 2,4 C 3,6 C 4,2 C 89 % 990,8 hPa 0,0 l/m 24,5 km/h (4 Bft) S-SO45 155 0 min 2,44 klux 17 W/m
04.03.2016 16:54 2,4 C 3,7 C 4,2 C 89 % 990,8 hPa 0,0 l/m 23,2 km/h (4 Bft) S-SO45 155 0 min 2,36 klux 16 W/m
04.03.2016 16:59 2,6 C 3,6 C 4,2 C 88 % 990,8 hPa 0,0 l/m 29,7 km/h (5 Bft) S-SO45 155 0 min 1,67 klux 11 W/m
04.03.2016 17:04 2,6 C 3,5 C 4,2 C 88 % 990,8 hPa 0,0 l/m 29,7 km/h (5 Bft) S45 175 0 min 2,12 klux 15 W/m
04.03.2016 17:09 2,6 C 3,7 C 4,2 C 88 % 990,8 hPa 0,0 l/m 25,7 km/h (4 Bft) S-SO45 165 0 min 1,81 klux 12 W/m
04.03.2016 17:14 2,6 C 4,1 C 4,2 C 88 % 990,8 hPa 0,0 l/m 26,6 km/h (4 Bft) S45 170 0 min 1,23 klux 8 W/m
04.03.2016 17:19 2,7 C 3,5 C 4,2 C 88 % 990,8 hPa 0,0 l/m 18,9 km/h (3 Bft) S-SO22.5 165 0 min 867 lux 6 W/m
04.03.2016 17:24 2,7 C 3,4 C 4,2 C 88 % 990,8 hPa 0,0 l/m 24,3 km/h (4 Bft) S-SO45 165 0 min 867 lux 6 W/m
04.03.2016 17:29 2,7 C 3,3 C 4,2 C 88 % 990,8 hPa 0,0 l/m 20,6 km/h (4 Bft) S45 170 0 min 1,18 klux 8 W/m
04.03.2016 17:34 2,8 C 3,4 C 4,3 C 88 % 990,8 hPa 0,0 l/m 22,3 km/h (4 Bft) S22.5 170 0 min 1,10 klux 8 W/m
04.03.2016 17:39 2,8 C 3,3 C 4,3 C 88 % 990,8 hPa 0,0 l/m 23,4 km/h (4 Bft) S-SO22.5 160 0 min 644 lux 4 W/m
04.03.2016 17:44 2,8 C 3,4 C 4,3 C 88 % 990,8 hPa 0,0 l/m 23,4 km/h (4 Bft) S-SO22.5 160 0 min 658 lux 5 W/m
04.03.2016 17:49 2,8 C 3,3 C 4,3 C 88 % 990,8 hPa 0,0 l/m 22,5 km/h (4 Bft) S-SO45 165 0 min 624 lux 4 W/m
04.03.2016 17:54 2,9 C 3,3 C 4,3 C 88 % 990,8 hPa 0,0 l/m 22,5 km/h (4 Bft) S-SO45 165 0 min 621 lux 4 W/m
04.03.2016 17:59 2,9 C 3,3 C 4,3 C 88 % 990,8 hPa 0,0 l/m 20,1 km/h (4 Bft) S-SO22.5 155 0 min 592 lux 4 W/m
04.03.2016 18:04 2,9 C 3,3 C 4,3 C 88 % 990,8 hPa 0,0 l/m 22,3 km/h (4 Bft) S-SO22.5 155 0 min 354 lux 2 W/m
04.03.2016 18:09 2,9 C 3,3 C 4,3 C 88 % 990,8 hPa 0,0 l/m 22,8 km/h (4 Bft) S-SO45 155 0 min 195 lux 1 W/m
04.03.2016 18:14 2,9 C 3,2 C 4,3 C 88 % 991,8 hPa 0,0 l/m 22,3 km/h (4 Bft) S-SO45 160 0 min 112 lux 1 W/m
04.03.2016 18:19 2,9 C 3,2 C 4,3 C 88 % 991,8 hPa 0,0 l/m 22,6 km/h (4 Bft) S-SO22.5 155 0 min 79 lux 0 W/m
04.03.2016 18:24 2,9 C 3,2 C 4,3 C 88 % 991,8 hPa 0,0 l/m 18,8 km/h (3 Bft) S45 170 0 min 63 lux 0 W/m
04.03.2016 18:29 2,9 C 3,3 C 4,3 C 88 % 991,8 hPa 0,0 l/m 26,8 km/h (4 Bft) S-SO45 165 0 min 38 lux 0 W/m
04.03.2016 18:34 2,9 C 3,4 C 4,3 C 88 % 991,8 hPa 0,0 l/m 16,3 km/h (3 Bft) S-SO22.5 165 0 min 19 lux 0 W/m
04.03.2016 18:39 3,1 C 3,3 C 4,4 C 87 % 991,8 hPa 0,0 l/m 14,8 km/h (3 Bft) S22.5 180 0 min 13 lux 0 W/m
04.03.2016 18:44 3,1 C 3,3 C 4,4 C 87 % 991,8 hPa 0,0 l/m 10,6 km/h (2 Bft) S22.5 180 0 min 9 lux 0 W/m
04.03.2016 18:49 3,1 C 3,3 C 4,4 C 87 % 991,8 hPa 0,0 l/m 10,6 km/h (2 Bft) S22.5 180 0 min 5 lux 0 W/m
04.03.2016 18:54 3,1 C 3,3 C 4,5 C 87 % 991,8 hPa 0,0 l/m 15,5 km/h (3 Bft) S-SO22.5 165 0 min 0 lux 0 W/m
04.03.2016 18:59 3,1 C 3,3 C 4,5 C 87 % 991,8 hPa 0,0 l/m 15,1 km/h (3 Bft) S22.5 175 0 min 0 lux 0 W/m
04.03.2016 19:04 3,1 C 3,3 C 4,4 C 87 % 991,8 hPa 0,0 l/m 19,9 km/h (4 Bft) S-SO22.5 165 0 min 0 lux 0 W/m
04.03.2016 19:09 3,1 C 3,3 C 4,4 C 87 % 991,8 hPa 0,0 l/m 19,1 km/h (3 Bft) S-SO22.5 165 0 min 0 lux 0 W/m
04.03.2016 19:14 3,1 C 3,3 C 4,4 C 87 % 991,8 hPa 0,0 l/m 16,6 km/h (3 Bft) S-SO22.5 165 0 min 0 lux 0 W/m
04.03.2016 19:19 3,2 C 3,3 C 4,4 C 87 % 991,8 hPa 0,0 l/m 16,7 km/h (3 Bft) S-SO22.5 165 0 min 0 lux 0 W/m
04.03.2016 19:24 3,2 C 3,2 C 4,4 C 87 % 991,8 hPa 0,0 l/m 16,7 km/h (3 Bft) S-SO22.5 165 0 min 0 lux 0 W/m
04.03.2016 19:29 3,2 C 3,1 C 4,4 C 87 % 991,8 hPa 0,0 l/m 16,8 km/h (3 Bft) S-SO22.5 160 0 min 0 lux 0 W/m
04.03.2016 19:34 3,2 C 3,0 C 4,4 C 87 % 991,8 hPa 0,0 l/m 13,0 km/h (3 Bft) S-SO22.5 150 0 min 0 lux 0 W/m
04.03.2016 19:39 3,2 C 2,5 C 4,4 C 87 % 991,8 hPa 0,0 l/m 15,1 km/h (3 Bft) S-SO22.5 150 0 min 0 lux 0 W/m
04.03.2016 19:44 3,2 C 2,5 C 4,5 C 87 % 991,8 hPa 0,0 l/m 13,8 km/h (3 Bft) S-SO22.5 155 0 min 0 lux 0 W/m
04.03.2016 19:49 3,1 C 2,7 C 4,5 C 87 % 991,8 hPa 0,0 l/m 13,8 km/h (3 Bft) S-SO22.5 155 0 min 0 lux 0 W/m
04.03.2016 19:54 3,1 C 2,9 C 4,5 C 87 % 991,8 hPa 0,0 l/m 14,4 km/h (3 Bft) S-SO22.5 160 0 min 0 lux 0 W/m
04.03.2016 19:59 3,1 C 3,0 C 4,5 C 87 % 991,8 hPa 0,0 l/m 10,6 km/h (2 Bft) S-SO22.5 155 0 min 0 lux 0 W/m
04.03.2016 20:04 3,1 C 3,1 C 4,5 C 87 % 991,8 hPa 0,0 l/m 11,3 km/h (2 Bft) S-SO22.5 155 0 min 0 lux 0 W/m
04.03.2016 20:09 3,3 C 3,2 C 4,5 C 87 % 991,8 hPa 0,0 l/m 12,7 km/h (3 Bft) SO22.5 145 0 min 0 lux 0 W/m
04.03.2016 20:14 3,3 C 3,2 C 4,5 C 87 % 991,8 hPa 0,0 l/m 10,3 km/h (2 Bft) SO22.5 135 0 min 0 lux 0 W/m
04.03.2016 20:20 3,3 C 3,3 C 4,5 C 87 % 991,8 hPa 0,0 l/m 14,7 km/h (3 Bft) SO22.5 145 0 min 0 lux 0 W/m
04.03.2016 20:24 3,3 C 3,3 C 4,5 C 87 % 991,8 hPa 0,0 l/m 10,1 km/h (2 Bft) S-SO22.5 165 0 min 0 lux 0 W/m
04.03.2016 20:29 3,3 C 3,4 C 4,6 C 87 % 991,8 hPa 0,0 l/m 14,8 km/h (3 Bft) S-SO22.5 160 0 min 0 lux 0 W/m
04.03.2016 20:34 3,3 C 3,4 C 4,6 C 87 % 991,8 hPa 0,0 l/m 14,8 km/h (3 Bft) S-SO22.5 160 0 min 0 lux 0 W/m
04.03.2016 20:39 3,3 C 3,4 C 4,6 C 87 % 991,8 hPa 0,0 l/m 14,8 km/h (3 Bft) S-SO22.5 160 0 min 0 lux 0 W/m
04.03.2016 20:44 3,3 C 3,4 C 4,6 C 87 % 991,8 hPa 0,0 l/m 12,1 km/h (2 Bft) S-SO22.5 160 0 min 0 lux 0 W/m
04.03.2016 20:49 3,3 C 3,4 C 4,6 C 87 % 991,8 hPa 0,0 l/m 9,1 km/h (2 Bft) SO22.5 140 0 min 0 lux 0 W/m
04.03.2016 20:54 3,3 C 3,4 C 4,6 C 87 % 991,8 hPa 0,0 l/m 9,1 km/h (2 Bft) SO22.5 140 0 min 0 lux 0 W/m
04.03.2016 20:59 3,3 C 3,3 C 4,6 C 87 % 992,8 hPa 0,0 l/m 9,0 km/h (2 Bft) S-SO22.5 150 0 min 0 lux 0 W/m
04.03.2016 21:04 3,3 C 3,2 C 4,6 C 87 % 992,8 hPa 0,0 l/m 9,0 km/h (2 Bft) S-SO22.5 150 0 min 0 lux 0 W/m
04.03.2016 21:09 3,3 C 3,2 C 4,6 C 87 % 992,8 hPa 0,0 l/m 6,5 km/h (2 Bft) SO 145 0 min 0 lux 0 W/m
04.03.2016 21:14 3,3 C 3,2 C 4,6 C 87 % 992,8 hPa 0,0 l/m 0,0 km/h (0 Bft) SO 140 0 min 0 lux 0 W/m
04.03.2016 21:19 3,3 C 3,2 C 4,6 C 87 % 991,8 hPa 0,0 l/m 5,5 km/h (2 Bft) SO 140 0 min 0 lux 0 W/m
04.03.2016 21:24 3,3 C 3,2 C 4,6 C 87 % 991,8 hPa 0,0 l/m 7,6 km/h (2 Bft) SO 140 0 min 0 lux 0 W/m
04.03.2016 21:29 3,3 C 3,2 C 4,6 C 87 % 991,8 hPa 0,0 l/m 6,1 km/h (2 Bft) SO22.5 135 0 min 0 lux 0 W/m
04.03.2016 21:34 3,3 C 3,2 C 4,6 C 87 % 992,8 hPa 0,0 l/m 6,1 km/h (2 Bft) SO22.5 135 0 min 0 lux 0 W/m
04.03.2016 21:39 3,3 C 3,2 C 4,6 C 87 % 992,8 hPa 0,0 l/m 7,6 km/h (2 Bft) SO 135 0 min 0 lux 0 W/m
04.03.2016 21:44 3,3 C 3,1 C 4,7 C 87 % 992,8 hPa 0,0 l/m 6,1 km/h (2 Bft) SO 135 0 min 0 lux 0 W/m
04.03.2016 21:49 3,3 C 3,1 C 4,7 C 87 % 992,8 hPa 0,0 l/m 0,2 km/h (0 Bft) SO 135 0 min 0 lux 0 W/m
04.03.2016 21:55 3,3 C 3,1 C 4,7 C 87 % 992,8 hPa 0,0 l/m 0,0 km/h (0 Bft) SO 135 0 min 0 lux 0 W/m
04.03.2016 21:59 3,3 C 3,0 C 4,7 C 87 % 992,8 hPa 0,0 l/m 0,0 km/h (0 Bft) SO 135 0 min 0 lux 0 W/m
04.03.2016 22:04 3,3 C 2,8 C 4,7 C 87 % 992,8 hPa 0,0 l/m 0,0 km/h (0 Bft) SO 135 0 min 0 lux 0 W/m
04.03.2016 22:09 3,2 C 2,7 C 4,7 C 87 % 992,8 hPa 0,0 l/m 3,6 km/h (1 Bft) SO 135 0 min 0 lux 0 W/m
04.03.2016 22:14 3,2 C 2,7 C 4,7 C 87 % 992,8 hPa 0,0 l/m 0,3 km/h (0 Bft) SO 135 0 min 0 lux 0 W/m
04.03.2016 22:19 3,2 C 2,5 C 4,8 C 87 % 992,8 hPa 0,0 l/m 0,2 km/h (0 Bft) SO 135 0 min 0 lux 0 W/m
04.03.2016 22:24 3,2 C 2,5 C 4,7 C 87 % 992,8 hPa 0,0 l/m 0,1 km/h (0 Bft) SO 135 0 min 0 lux 0 W/m
04.03.2016 22:29 3,2 C 2,5 C 4,7 C 87 % 992,8 hPa 0,0 l/m 2,4 km/h (1 Bft) SO 135 0 min 0 lux 0 W/m
04.03.2016 22:34 3,2 C 2,7 C 4,6 C 87 % 992,8 hPa 0,0 l/m 2,4 km/h (1 Bft) SO 135 0 min 0 lux 0 W/m
04.03.2016 22:39 3,2 C 2,8 C 4,6 C 87 % 992,8 hPa 0,0 l/m 9,0 km/h (2 Bft) S-SO22.5 150 0 min 0 lux 0 W/m
04.03.2016 22:44 3,2 C 2,7 C 4,6 C 87 % 992,8 hPa 0,0 l/m 5,6 km/h (2 Bft) S-SO 150 0 min 0 lux 0 W/m
04.03.2016 22:49 3,2 C 2,7 C 4,6 C 88 % 992,8 hPa 0,0 l/m 5,6 km/h (2 Bft) S-SO 150 0 min 0 lux 0 W/m
04.03.2016 22:54 3,2 C 2,5 C 4,6 C 88 % 992,8 hPa 0,0 l/m 4,9 km/h (1 Bft) S-SO 150 0 min 0 lux 0 W/m
04.03.2016 22:59 3,2 C 2,5 C 4,7 C 88 % 992,8 hPa 0,0 l/m 6,5 km/h (2 Bft) S-SO 150 0 min 0 lux 0 W/m
04.03.2016 23:04 3,2 C 2,5 C 4,7 C 88 % 992,8 hPa 0,0 l/m 0,0 km/h (0 Bft) S-SO 150 0 min 0 lux 0 W/m
04.03.2016 23:09 3,2 C 2,4 C 4,7 C 88 % 992,8 hPa 0,0 l/m 0,0 km/h (0 Bft) S-SO 150 0 min 0 lux 0 W/m
04.03.2016 23:14 3,2 C 2,3 C 4,7 C 88 % 992,8 hPa 0,0 l/m 0,0 km/h (0 Bft) S-SO 150 0 min 0 lux 0 W/m
04.03.2016 23:19 3,2 C 2,2 C 4,7 C 88 % 992,8 hPa 0,0 l/m 0,0 km/h (0 Bft) S-SO 150 0 min 0 lux 0 W/m
04.03.2016 23:24 3,2 C 1,9 C 4,7 C 88 % 992,8 hPa 0,0 l/m 0,1 km/h (0 Bft) S-SO 150 0 min 0 lux 0 W/m
04.03.2016 23:29 3,2 C 1,7 C 4,7 C 88 % 992,8 hPa 0,0 l/m 0,6 km/h (0 Bft) S-SO 150 0 min 0 lux 0 W/m
04.03.2016 23:34 2,8 C 1,5 C 4,7 C 88 % 992,8 hPa 0,0 l/m 0,0 km/h (0 Bft) S-SO 150 0 min 0 lux 0 W/m
04.03.2016 23:39 2,8 C 1,5 C 4,7 C 88 % 992,8 hPa 0,0 l/m 0,0 km/h (0 Bft) S-SO 150 0 min 0 lux 0 W/m
04.03.2016 23:44 2,8 C 1,5 C 4,7 C 88 % 992,8 hPa 0,0 l/m 0,0 km/h (0 Bft) S-SO 150 0 min 0 lux 0 W/m
04.03.2016 23:49 2,8 C 1,6 C 4,7 C 88 % 992,8 hPa 0,0 l/m 0,0 km/h (0 Bft) S-SO 150 0 min 0 lux 0 W/m
04.03.2016 23:54 2,8 C 1,5 C 4,7 C 88 % 992,8 hPa 0,0 l/m 0,0 km/h (0 Bft) S-SO 150 0 min 0 lux 0 W/m
04.03.2016 23:59 2,8 C 1,2 C 4,8 C 88 % 992,8 hPa 0,0 l/m 0,0 km/h (0 Bft) S-SO 150 0 min 0 lux 0 W/m
_ Min-Zeit 13:59 00:39 15:09 08:29 17:54 - 21:14 - - - - -
Minimum _ 0,7 C -2,6 C 3,5 C 73 % 990,8 hPa - 0,0 km/h (0 Bft) - - - - -
_ Max-Zeit 08:29 16:24 00:04 14:49 01:14 13:44 10:19 - - 00:04 15:54 15:54
Maximum _ 3,3 C 4,7 C 5,4 C 89 % 1003,9 hPa 1,4 l/m 43,3 km/h
S-SO (6 Bft)
- - 0 min 14,0 klux 96 W/m
Durchschnitt _ 2,1 C 1,4 C 4,5 C 85 % 995,3 hPa #9,0 l/m 17,4 km/h (3 Bft) S-SO - #0 min. 2,03 klux 30 W/m